Wind_Speed
32 32 30 27 26 26 27 28 30 30 29 26 25 26 26 25 25 25 24 22 22 23 24 24 24 23 22 22 22 22 22 22 22 22 21 20 20 18 17 16 16 15 13 10 9 8 8 9 9 8 7 10 12 13 12 13 12 14 18 20 21 20 19 18 18 18 18 19 18 17 17 17 15 14 14 13 12 10 9 8 8 8 8 9 9 8
34 32 29 28 29 29 30 31 33 33 31 29 27 27 27 26 26 26 26 25 25 26 27 26 26 25 24 23 21 20 21 22 22 23 22 21 21 20 18 18 16 14 12 10 8 8 8 8 8 8 8 9 13 14 13 13 13 13 16 20 22 21 21 20 19 19 19 18 17 16 16 16 15 14 13 12 12 10 9 8 8 8 9 9 10 9
33 32 30 31 32 33 33 34 34 35 34 32 30 28 28 28 27 27 27 27 27 27 27 27 27 27 26 24 22 22 22 23 22 21 20 19 19 18 18 18 16 14 13 12 10 9 9 10 10 9 9 10 12 14 13 12 12 13 15 19 22 23 22 20 20 19 17 16 15 14 13 13 13 12 12 12 12 11 10 8 8 8 9 10 10 9
30 32 32 33 34 35 35 35 35 36 36 35 33 30 29 29 30 29 28 28 29 28 28 28 28 28 27 26 26 26 25 24 22 20 18 18 18 19 18 17 16 15 15 14 14 13 12 12 11 11 10 10 11 13 13 12 13 13 15 20 23 24 23 21 19 17 15 14 14 13 12 12 12 12 12 12 12 11 10 9 8 8 9 10 10 9
29 32 34 35 36 36 36 35 35 36 37 36 35 33 32 32 32 32 30 30 29 29 29 29 29 29 28 28 28 29 28 25 23 21 20 20 21 20 18 15 14 14 15 15 15 15 14 14 13 13 12 11 11 14 15 14 14 14 15 19 23 24 23 21 19 16 15 14 15 14 13 13 14 14 14 13 12 11 10 9 8 8 9 10 10 9
31 33 36 37 38 37 37 36 36 36 36 37 36 35 35 35 35 35 33 31 30 30 31 29 29 29 28 28 28 28 27 25 23 23 23 23 22 21 19 17 15 14 14 14 15 15 16 17 16 15 13 12 12 14 15 15 14 13 13 17 22 24 23 21 19 16 15 15 15 16 16 16 16 16 15 14 12 11 10 10 9 8 9 10 10 9
32 33 36 39 39 39 38 38 37 37 36 36 35 35 36 37 37 37 36 34 32 32 32 29 28 29 27 27 27 26 23 22 22 23 23 23 22 22 22 20 18 15 14 14 14 14 15 16 16 15 14 14 14 14 16 16 14 13 12 15 21 24 24 22 19 18 17 16 16 18 18 17 15 13 12 12 11 11 11 11 9 9 10 11 11 10
32 34 36 38 39 40 39 38 37 37 36 34 32 33 35 36 37 38 38 37 35 34 33 29 27 27 27 26 25 22 19 18 19 20 21 21 22 24 24 23 20 17 16 15 14 14 14 14 15 15 14 15 15 14 15 16 16 14 13 15 20 23 24 22 20 19 19 19 18 18 18 16 14 12 11 11 11 11 12 12 11 11 12 12 11 10
33 34 35 36 38 38 38 38 37 37 35 32 31 33 34 35 36 38 40 39 37 36 34 30 27 26 26 25 23 20 18 19 20 21 21 21 23 24 25 23 21 19 18 16 15 16 16 15 15 16 16 15 13 13 15 16 17 16 15 16 19 22 23 23 21 20 20 20 19 18 17 16 14 13 12 12 13 13 12 13 13 12 13 12 12 11
35 36 36 36 37 36 37 38 37 37 35 33 33 34 34 35 36 37 38 38 38 38 35 32 29 27 27 26 23 21 21 23 25 25 24 25 25 26 25 24 22 21 19 17 16 16 17 17 17 18 17 14 12 12 14 15 17 16 14 16 19 21 24 23 22 21 20 19 18 17 15 15 14 14 14 14 14 14 14 14 14 14 13 13 12 11
37 38 38 37 36 34 35 37 38 38 36 36 36 36 36 36 37 36 36 37 39 38 35 34 32 28 28 28 25 24 25 27 27 26 25 25 26 27 27 26 24 22 20 18 17 17 17 18 18 18 16 14 12 11 11 12 15 16 15 17 19 22 24 25 23 21 20 18 17 16 14 14 15 15 15 15 15 15 15 15 15 14 13 12 12 11
39 40 40 38 36 34 35 37 38 39 38 38 38 38 38 38 38 37 37 38 39 37 35 36 34 30 31 30 27 26 27 27 26 25 23 23 24 25 26 27 27 26 24 21 19 19 18 17 17 16 14 13 11 9 9 11 15 16 16 17 19 21 24 26 24 22 21 19 17 16 14 15 15 16 15 15 15 15 15 15 15 14 13 13 12 12
40 41 41 39 36 35 36 37 38 39 39 39 39 40 39 38 39 39 39 40 38 35 35 36 35 32 33 32 30 29 29 27 26 25 23 23 23 23 24 26 27 29 28 26 23 21 18 16 16 16 15 13 10 9 9 11 14 16 17 17 19 21 24 26 25 23 22 20 19 17 15 15 16 16 16 15 15 15 15 15 14 14 13 12 12 11
41 42 41 39 38 37 37 37 37 38 40 40 41 41 40 39 39 40 40 39 36 33 33 36 36 35 35 34 32 31 30 28 27 25 24 23 23 24 24 24 25 26 27 26 25 23 20 18 17 18 17 14 13 12 11 11 14 16 17 18 19 22 25 27 26 24 23 21 19 17 16 16 16 17 16 16 15 15 15 15 15 14 12 11 10 9
40 41 41 40 39 38 38 38 37 38 39 40 41 41 40 39 38 38 38 37 34 31 33 35 37 37 36 34 33 32 31 28 27 26 25 24 24 25 24 24 24 25 25 25 23 21 21 20 19 19 19 17 15 14 13 12 13 15 17 18 20 22 25 27 27 25 24 22 20 18 17 16 17 16 16 16 15 15 15 16 15 14 13 11 9 9
39 40 40 39 39 39 39 39 37 38 39 40 41 41 41 40 39 38 37 36 32 31 33 35 36 36 36 34 34 34 33 29 28 27 26 26 26 25 24 22 22 22 24 24 23 21 21 21 21 21 21 19 18 16 14 13 12 14 17 19 20 22 26 28 28 27 26 24 21 19 18 17 17 16 16 15 15 15 15 16 16 15 14 12 11 11
37 38 39 39 39 39 40 40 39 38 39 40 40 40 40 40 40 39 38 36 33 33 34 35 36 36 35 34 36 37 35 32 30 30 28 27 27 25 23 21 19 19 19 21 23 23 23 22 21 22 22 21 19 18 16 14 14 14 16 19 20 22 25 28 29 28 27 25 22 20 19 19 18 17 16 16 16 16 15 15 16 15 15 14 14 14
35 37 38 39 39 40 41 41 40 40 40 40 41 40 39 39 40 39 39 38 36 35 36 36 36 36 35 35 37 38 36 33 32 32 29 28 28 26 23 22 20 18 17 18 21 23 23 22 21 22 22 22 21 20 19 18 17 16 17 19 20 22 25 28 30 30 28 26 24 22 21 20 20 19 18 18 18 17 16 15 15 16 16 16 16 16
34 35 36 38 39 40 41 41 41 41 41 41 41 40 40 41 41 40 40 40 38 37 37 36 36 37 37 36 36 37 37 35 34 33 31 30 29 27 25 23 21 19 18 17 18 21 23 22 22 22 22 22 23 24 23 22 20 19 18 19 20 22 25 28 31 31 30 28 26 24 23 23 22 21 19 19 19 18 17 17 17 17 18 18 18 17
33 34 35 36 38 39 40 41 41 41 42 42 42 41 41 42 42 41 41 41 40 39 38 37 36 37 37 37 36 36 37 36 35 34 33 33 31 28 27 25 23 21 18 17 18 20 24 26 26 25 24 24 25 26 26 24 23 21 20 19 20 22 24 27 30 31 31 30 29 27 25 24 24 22 20 20 20 20 19 19 18 18 19 19 19 18
32 33 34 35 36 38 40 41 41 41 42 42 43 43 43 42 42 42 42 42 41 41 40 39 38 37 37 36 36 37 37 37 35 35 36 35 32 29 28 27 26 23 20 19 19 21 24 27 29 29 28 27 28 28 28 27 25 23 22 20 19 20 23 25 28 30 31 31 30 29 27 26 26 24 22 21 21 21 21 20 19 19 19 19 19 19
29 31 33 34 35 36 38 40 41 41 42 43 43 43 43 43 43 43 42 43 42 42 42 41 39 38 37 36 36 36 37 37 37 36 38 37 33 29 29 29 28 26 23 21 21 22 24 25 28 29 29 29 29 29 28 28 27 26 24 22 21 20 21 23 26 29 31 32 32 31 29 29 28 26 24 22 22 22 22 21 20 20 20 19 19 19
26 28 30 33 34 35 37 38 40 41 42 43 44 44 44 44 44 44 43 43 43 43 43 42 41 40 38 37 37 37 37 38 38 38 39 39 35 31 31 32 31 30 27 24 23 23 24 24 25 28 29 30 29 29 28 28 28 27 26 25 23 21 21 23 26 29 31 33 33 33 32 31 29 28 25 24 23 23 23 22 22 21 20 20 20 20
24 26 28 31 32 33 35 37 38 40 41 42 44 44 44 44 44 45 44 44 43 43 43 43 42 42 40 38 38 38 38 39 39 39 40 41 38 35 35 35 34 33 31 29 27 25 25 24 24 26 29 30 30 29 29 29 29 29 28 27 25 24 24 24 26 29 31 32 34 35 34 32 31 30 27 26 25 25 24 24 23 22 21 21 21 20
26 26 27 29 31 33 34 35 37 39 40 41 42 44 44 45 45 45 45 45 44 44 44 44 44 43 41 39 39 38 38 38 38 39 39 40 39 37 37 37 37 37 35 33 31 29 28 26 25 25 27 30 30 30 30 30 30 30 29 28 27 27 27 27 28 30 31 33 34 35 35 34 33 31 30 29 28 27 27 26 25 24 23 22 22 21
28 29 29 29 31 33 34 35 37 38 39 40 41 42 43 44 45 45 46 46 46 45 45 45 45 45 43 42 40 39 38 38 37 37 37 38 39 39 38 39 39 39 38 37 35 33 32 30 28 27 27 29 31 31 31 30 31 31 30 29 29 29 28 27 28 30 32 34 35 35 36 36 34 33 32 32 31 31 30 29 27 26 25 24 24 23
29 30 31 31 32 33 34 35 36 37 38 39 40 41 42 43 45 46 46 47 47 47 47 47 46 46 45 45 43 42 40 39 37 36 36 37 38 39 40 40 41 41 41 39 38 36 35 35 33 30 28 29 30 31 32 32 32 32 31 31 31 30 29 28 28 30 32 35 36 36 36 37 36 36 35 35 34 33 32 31 30 29 28 27 26 25
29 30 31 32 32 33 35 35 36 37 38 39 40 41 42 43 44 45 46 47 47 47 48 48 48 47 47 46 45 44 43 41 39 37 36 36 37 39 40 41 42 42 42 41 40 38 37 38 37 34 32 31 30 31 32 33 34 34 33 33 32 31 31 30 29 29 31 34 36 37 37 38 38 38 38 38 37 35 34 33 31 30 30 29 28 27
27 29 30 31 32 33 34 35 36 37 38 39 40 41 41 42 43 44 46 47 47 48 49 49 49 48 48 48 47 46 45 43 41 39 37 37 37 38 39 41 42 42 43 42 42 41 39 40 41 40 37 35 34 33 32 33 35 35 35 35 34 32 31 31 30 30 31 33 36 37 38 39 40 40 40 40 39 37 35 34 33 32 32 30 29 28
24 26 28 30 32 33 34 35 36 37 38 39 40 41 41 42 43 44 45 46 47 48 49 49 49 49 49 48 48 48 47 45 44 41 39 38 38 37 38 39 41 42 43 43 43 43 41 41 43 44 42 39 38 36 34 33 34 36 37 36 35 34 33 33 32 31 31 32 34 37 39 41 41 42 42 41 40 39 38 36 35 34 33 32 31 30
21 23 24 26 28 31 33 34 35 36 37 38 39 40 41 42 43 44 45 46 47 48 49 50 50 49 49 48 48 48 48 47 46 44 42 40 39 39 38 38 40 41 42 42 44 44 42 42 44 45 45 43 41 40 38 36 35 36 38 38 37 36 36 35 34 32 30 30 32 35 38 41 42 43 43 42 41 41 40 38 37 36 35 33 32 31
22 22 23 23 25 27 29 31 33 35 36 38 39 39 40 42 43 44 45 46 47 48 49 50 51 50 49 49 49 49 49 48 47 46 43 42 41 41 39 39 40 41 41 41 43 43 43 42 42 44 46 47 45 42 41 40 38 37 38 39 39 38 38 37 35 34 32 31 32 35 37 39 41 42 43 43 42 42 41 40 39 38 36 35 34 33
24 24 24 25 26 27 28 29 31 32 33 36 37 39 40 41 43 43 44 46 48 49 50 51 51 51 50 50 50 50 49 49 49 47 45 43 42 42 41 41 41 41 41 40 41 43 43 43 41 41 43 47 47 45 44 43 41 39 39 40 41 41 41 39 37 36 35 33 34 35 35 37 38 40 41 42 42 42 42 41 40 39 38 36 36 35
25 26 26 27 28 29 30 31 32 32 33 34 35 37 39 40 42 43 44 45 47 49 50 51 51 51 51 50 50 51 50 50 50 49 46 45 43 42 42 43 42 43 43 42 42 44 44 44 43 41 41 44 47 47 46 45 44 42 41 41 43 44 44 42 41 40 39 38 37 36 36 36 36 37 39 40 41 42 42 42 41 40 40 39 38 37
25 26 27 28 29 30 31 32 34 35 36 36 36 36 38 39 41 42 43 45 46 48 49 51 51 52 52 51 51 51 51 51 50 50 48 47 45 43 43 44 45 45 45 44 44 45 46 45 44 43 42 43 45 46 46 47 47 46 44 43 43 45 46 45 44 43 42 41 40 38 37 36 36 36 38 40 41 42 43 43 42 41 41 40 40 39
23 24 25 26 28 29 31 33 35 37 37 38 39 39 39 40 40 41 43 44 45 46 48 50 51 52 52 53 52 52 52 52 51 51 50 49 47 45 44 45 47 47 47 47 47 48 48 48 46 45 44 44 45 46 46 47 48 49 47 46 45 45 47 48 47 46 45 44 42 40 39 37 35 35 36 38 40 42 43 43 42 42 42 42 41 41
19 20 20 22 23 25 27 30 32 35 37 39 41 42 42 43 43 43 43 44 44 46 47 49 50 51 52 53 54 54 53 53 53 52 52 51 49 48 46 47 48 50 50 49 49 50 50 50 48 47 46 46 46 47 47 47 48 50 50 49 47 46 46 47 47 47 46 44 43 42 40 38 35 34 34 36 38 41 42 42 42 42 42 42 42 42
16 17 18 19 20 21 23 25 27 30 34 36 39 41 43 44 45 46 46 46 45 46 47 49 50 51 52 53 54 55 55 55 55 54 54 53 52 51 49 48 50 52 53 52 52 52 53 52 51 49 49 48 48 50 50 48 48 50 51 51 50 49 47 45 45 46 45 43 42 42 41 39 37 36 36 36 38 40 41 41 42 41 41 42 43 43
16 17 17 18 19 19 21 22 24 26 29 31 34 38 41 44 46 47 49 50 48 48 49 50 51 52 53 54 55 56 56 57 56 56 56 55 54 53 52 51 51 53 55 55 55 55 55 55 53 52 51 51 51 51 52 51 50 50 51 53 53 52 50 46 44 45 45 45 44 44 43 42 40 39 40 39 38 39 39 40 41 40 41 42 43 43
16 17 17 19 20 21 23 25 26 28 29 30 31 34 37 40 42 46 49 51 50 51 53 53 54 54 54 55 56 57 57 58 58 57 57 58 57 56 55 54 53 54 56 57 58 58 58 58 57 55 53 53 53 54 54 54 53 51 52 54 55 54 51 48 47 46 45 45 45 45 45 44 43 42 42 42 41 39 39 41 41 41 41 42 42 42
17 18 19 21 23 24 25 27 29 31 32 33 34 34 34 36 38 41 45 48 50 53 56 57 58 58 57 57 57 58 59 59 59 59 59 59 59 59 58 57 56 56 57 59 59 60 60 60 60 58 57 56 56 56 56 55 55 54 53 54 55 54 51 50 50 49 47 45 45 46 46 45 44 44 44 45 44 43 42 42 43 42 42 41 40 41
19 19 20 21 22 22 22 24 25 27 30 32 34 34 34 34 35 35 38 41 46 51 55 57 60 61 61 61 60 60 60 60 61 61 61 61 61 61 61 60 59 58 59 60 61 61 62 62 63 62 61 59 58 58 58 57 56 56 55 54 55 55 53 52 51 51 49 47 45 44 45 46 46 46 47 48 48 46 44 44 42 41 42 41 39 39
19 19 19 19 19 18 19 20 21 22 23 26 30 32 33 34 33 33 33 36 40 43 48 52 57 61 63 64 64 63 63 63 62 63 63 63 64 64 63 62 62 61 61 61 62 63 63 64 65 65 64 63 61 60 60 59 58 57 56 55 55 55 54 54 53 51 50 49 47 44 44 46 47 47 47 49 50 48 46 44 43 42 42 41 38 37
18 17 17 17 17 17 17 17 17 17 19 22 25 28 30 32 32 32 33 34 35 37 40 44 49 55 60 64 66 67 67 66 65 65 65 65 66 66 66 65 64 64 63 63 64 65 65 64 65 66 66 66 65 63 62 61 61 60 58 57 56 56 55 55 54 53 52 51 50 48 46 47 47 47 47 48 49 50 48 46 45 44 43 41 38 36
17 16 16 16 16 16 16 16 15 15 16 19 21 24 27 28 30 30 31 32 33 34 36 39 44 49 55 60 64 68 70 70 70 68 67 67 67 68 68 68 68 67 66 65 65 66 67 66 66 67 68 68 67 66 66 65 64 63 61 59 58 57 56 55 55 55 54 52 51 49 49 49 49 48 48 47 47 48 49 49 48 46 44 43 40 37
16 15 16 16 15 15 17 16 14 14 15 16 18 22 24 26 27 28 29 30 31 32 33 35 38 43 49 55 60 64 68 71 73 73 71 70 69 69 70 70 70 70 70 69 68 68 69 69 68 67 68 69 70 69 68 68 67 66 64 63 61 59 58 57 56 55 54 53 52 51 50 52 51 49 48 48 46 45 45 47 48 47 46 43 41 38
17 15 16 16 16 16 17 16 14 14 15 14 15 18 21 24 26 27 28 29 30 31 31 32 33 35 40 47 54 59 64 68 72 75 76 75 73 71 71 72 73 73 73 72 72 71 70 70 71 70 69 69 71 71 71 70 70 68 67 66 65 63 61 59 57 56 55 55 54 52 51 52 54 51 49 48 47 46 45 45 44 46 46 42 39 39
20 18 18 18 17 17 18 16 14 15 15 14 13 15 17 21 23 25 27 28 28 29 30 30 31 31 32 35 42 49 56 61 66 71 75 77 78 76 74 73 74 75 75 75 75 75 73 72 72 72 71 70 71 73 73 73 72 71 70 69 68 67 64 61 58 57 56 56 55 53 51 52 53 52 51 50 47 45 44 44 42 42 44 42 38 37
25 25 24 22 19 19 20 19 16 16 17 14 13 13 15 17 18 20 22 23 24 26 27 29 30 31 31 31 33 37 42 49 57 63 68 73 78 80 80 78 76 76 76 77 78 78 77 75 74 74 74 73 72 73 74 75 74 73 72 71 70 69 68 65 61 58 57 57 56 55 54 53 54 54 52 51 50 47 43 42 41 39 40 41 40 38
31 31 29 26 22 21 24 23 19 19 20 17 14 14 15 16 16 16 17 18 20 21 22 24 26 28 30 31 32 33 35 38 44 52 59 65 71 77 81 83 81 79 78 78 79 80 80 79 77 76 75 75 74 75 75 75 75 74 72 71 70 70 70 69 67 63 60 59 59 58 56 53 54 57 56 53 54 53 48 43 42 41 39 40 42 40
34 34 33 31 28 26 28 28 24 22 23 22 18 16 17 17 16 17 17 17 17 18 18 19 21 23 25 27 29 31 33 35 38 43 49 55 62 69 76 81 84 83 81 80 80 80 82 82 80 79 78 77 77 77 77 76 76 76 74 71 69 67 67 67 68 68 66 64 64 63 60 53 49 54 59 57 54 54 51 46 44 43 42 43 44 43
Wind_Direction
213 213 211 209 208 208 209 210 210 209 207 199 189 187 189 191 195 195 190 189 192 198 205 206 205 203 198 193 190 187 186 185 185 185 185 183 180 179 181 182 183 186 190 192 186 185 188 186 184 182 182 186 187 188 189 188 187 186 185 182 176 172 169 164 162 162 161 160 161 162 160 159 158 157 155 151 148 146 142 140 135 129 125 125 127 130
211 210 206 203 204 205 205 207 210 210 208 204 195 189 190 192 197 199 194 193 196 200 207 210 209 209 206 203 199 197 196 195 194 194 193 193 191 187 185 186 187 182 179 183 187 188 189 188 188 183 177 184 188 189 192 191 189 190 189 184 179 177 175 172 169 168 168 164 162 163 161 160 159 158 157 152 147 146 145 145 142 137 134 131 130 131
209 207 204 201 202 203 203 204 208 209 209 208 202 193 192 194 199 202 198 197 201 204 208 212 213 214 213 210 208 208 209 208 208 209 208 209 207 203 197 192 186 180 176 179 184 188 190 189 187 187 183 184 188 190 193 194 193 192 190 187 184 181 180 178 174 172 170 165 160 161 161 159 157 158 160 158 153 151 151 150 147 143 140 136 135 135
208 205 203 202 203 204 203 203 205 208 208 208 205 199 195 197 201 204 201 199 203 206 209 212 215 217 217 215 215 217 218 219 221 223 226 225 221 221 219 207 191 185 183 183 183 185 189 189 187 190 189 184 186 190 192 197 198 193 190 189 187 185 184 182 179 172 166 163 158 158 160 159 158 164 170 167 162 160 155 152 151 148 144 141 140 140
203 204 203 202 204 204 203 203 205 207 207 207 206 202 199 200 204 206 205 202 202 206 209 211 214 217 218 216 217 220 222 224 227 228 230 230 229 230 226 213 199 194 193 191 189 187 186 188 191 193 190 186 187 190 192 197 200 196 194 191 188 187 187 185 180 170 164 165 160 158 165 170 170 174 179 176 171 165 156 153 156 155 151 147 146 146
198 200 202 203 204 204 203 203 205 207 207 207 205 203 202 203 206 208 210 207 203 205 208 209 211 215 217 216 217 220 222 223 225 226 226 227 230 227 217 205 199 198 201 200 197 195 191 191 196 197 191 188 190 192 194 198 200 199 198 195 190 189 189 186 179 169 165 169 167 165 173 182 181 179 181 178 171 165 158 155 161 164 160 155 152 152
197 198 201 203 204 204 203 203 205 207 208 207 205 205 205 206 208 209 212 211 206 206 208 207 208 211 213 215 218 221 221 221 222 224 226 226 224 219 212 208 201 197 200 202 202 202 200 199 202 200 194 194 196 196 197 198 199 198 197 195 192 190 190 187 179 170 167 172 177 176 179 186 186 181 180 177 170 166 162 159 165 168 164 160 159 158
196 198 201 204 206 206 204 204 205 207 209 208 206 207 208 210 210 211 213 214 211 209 208 206 206 208 209 211 216 219 218 219 221 223 223 221 217 213 212 210 206 201 200 201 200 199 199 203 206 205 203 203 202 199 199 198 197 198 194 191 191 192 192 187 180 175 173 177 184 184 181 182 182 180 179 177 174 172 167 165 167 167 165 165 165 164
195 198 201 204 207 207 206 205 205 206 207 206 206 207 209 211 213 214 215 216 215 213 209 207 205 205 205 208 211 212 210 212 215 213 210 207 206 206 207 206 206 203 200 200 201 198 195 197 203 209 212 211 206 202 203 200 197 198 193 186 186 190 192 189 182 180 181 183 186 188 184 177 176 179 179 179 178 176 173 171 168 166 167 169 171 172
195 197 199 203 206 206 205 205 205 205 204 204 206 207 208 210 214 216 216 217 218 215 210 209 207 202 203 207 206 203 203 206 207 204 202 200 197 196 197 198 201 201 197 197 202 202 199 198 200 206 212 213 206 205 208 204 198 199 194 184 183 187 191 191 186 184 187 189 188 189 185 177 176 181 183 183 181 178 177 175 170 166 168 173 177 179
197 197 200 203 204 203 203 204 205 204 203 203 205 207 208 210 212 215 216 215 217 215 211 210 208 201 201 206 205 200 202 204 203 202 203 202 197 193 190 189 192 193 191 193 200 204 204 204 206 208 211 209 205 205 209 204 199 198 195 187 183 185 188 190 189 188 191 194 193 191 186 180 182 186 189 187 184 182 180 177 172 168 170 177 183 186
199 200 201 203 202 200 201 203 204 203 202 204 206 207 208 210 211 214 214 214 215 213 209 209 209 202 201 206 205 203 205 206 204 204 206 206 202 197 194 190 188 188 188 191 197 206 208 205 207 212 215 209 201 199 199 199 199 198 196 190 186 185 186 189 190 190 193 197 197 192 186 184 187 191 192 190 187 185 183 178 174 172 175 183 191 194
200 202 203 203 201 199 200 202 203 202 202 204 207 208 209 210 212 213 214 215 215 211 208 209 208 204 203 206 207 209 209 206 206 206 207 207 203 200 200 198 195 193 192 190 192 202 208 205 201 205 211 208 196 191 192 194 197 197 196 192 188 187 187 189 190 191 194 199 199 193 187 188 192 194 194 192 189 186 184 181 177 177 182 189 198 202
202 204 205 204 202 200 201 203 202 202 202 205 208 210 211 212 214 214 215 216 215 210 208 209 208 206 206 205 208 213 212 208 207 206 206 207 203 199 199 200 202 204 203 199 195 196 200 201 199 198 200 199 195 192 191 194 198 199 196 192 191 191 189 189 192 193 196 199 199 192 188 193 198 196 194 193 191 187 185 184 182 181 186 191 198 204
205 206 206 205 203 201 203 204 202 202 202 205 209 210 212 214 217 219 219 219 216 211 210 210 208 208 207 205 209 215 215 211 208 206 206 206 203 202 201 199 201 205 210 211 208 203 198 195 195 195 193 193 195 197 194 194 199 202 200 196 194 193 191 191 193 196 199 201 200 193 189 195 203 201 195 193 192 191 190 189 186 184 185 188 191 200
206 207 207 206 204 203 204 205 203 202 202 205 208 211 212 213 216 220 222 221 217 213 212 212 211 210 208 204 208 214 216 212 208 206 205 205 203 203 203 201 201 203 208 212 213 212 208 200 195 192 192 192 196 200 199 196 198 202 205 202 198 196 194 193 194 197 201 204 202 197 192 196 205 207 199 193 192 195 198 196 192 189 187 186 191 200
207 208 207 207 205 204 205 205 204 203 203 205 208 210 212 213 215 218 221 222 218 214 213 213 213 213 209 205 207 212 214 212 208 206 205 206 206 204 202 201 202 203 207 211 211 210 211 208 199 192 193 194 197 200 201 201 200 201 205 206 204 200 197 197 197 199 202 205 205 202 197 198 205 210 205 197 193 195 200 202 199 196 192 191 196 202
208 208 209 207 206 205 206 207 205 204 204 205 208 209 211 213 215 217 220 221 219 217 215 213 214 215 212 208 207 210 212 211 208 206 206 207 206 203 200 198 199 200 203 209 211 210 210 210 202 196 195 196 196 198 200 203 205 204 205 208 208 204 201 200 201 202 203 205 206 205 201 201 205 209 207 202 197 195 199 204 205 204 200 199 202 205
207 208 209 208 207 206 207 208 207 205 205 206 207 208 210 213 215 216 219 221 221 220 219 216 215 217 215 211 209 210 211 211 209 208 208 208 205 201 198 195 195 197 199 203 210 212 211 209 206 203 201 199 198 198 200 203 206 206 205 207 209 208 206 204 204 204 205 206 207 206 204 204 207 209 207 203 200 197 198 203 207 209 207 206 207 208
208 208 210 209 208 206 206 208 209 206 205 206 207 207 209 213 215 216 218 221 222 223 223 221 219 219 218 214 211 211 211 212 212 210 207 206 204 202 199 195 193 196 198 202 207 209 211 211 211 211 208 204 202 200 201 203 206 207 206 205 207 210 211 210 209 208 207 208 208 207 206 206 209 210 207 204 202 200 201 203 206 211 212 211 211 211
209 210 211 211 209 208 207 208 209 208 206 206 207 208 209 211 214 216 218 220 222 224 225 225 223 222 220 216 213 213 212 211 210 207 205 204 203 204 202 197 195 195 198 203 206 207 211 214 217 218 214 210 208 205 203 203 205 207 207 206 207 210 213 213 213 212 211 210 210 210 208 207 209 211 209 205 203 203 204 204 205 210 213 214 215 214
210 211 212 212 212 211 210 209 209 210 209 207 208 209 210 211 213 216 218 220 221 224 226 227 226 226 223 219 216 216 215 213 210 206 204 203 204 207 208 202 197 196 197 203 207 208 211 215 219 223 221 217 214 212 208 206 206 206 206 205 206 208 212 215 216 215 214 213 212 212 211 210 211 211 209 207 205 205 206 206 207 210 213 216 217 216
212 212 213 215 215 214 212 211 211 211 211 210 210 210 211 212 213 215 217 219 221 223 226 227 228 228 226 222 219 219 219 217 214 210 207 207 208 211 212 208 200 196 197 201 205 209 213 216 218 222 225 223 219 216 212 210 209 208 206 205 204 204 208 214 216 217 217 216 215 214 213 212 212 213 210 208 207 208 208 208 209 211 212 216 218 218
211 212 214 216 217 216 215 214 214 213 213 212 212 211 212 213 214 215 217 219 221 224 225 227 229 228 226 224 222 220 220 220 219 216 214 214 215 213 212 212 206 201 200 202 204 207 212 218 219 221 225 227 224 219 216 214 212 211 209 207 204 202 204 208 213 215 217 217 217 216 215 214 214 214 212 209 208 209 211 211 211 211 212 216 219 220
212 213 213 215 218 219 218 217 216 216 215 215 215 214 214 215 215 217 218 219 221 224 226 227 230 230 229 228 226 224 222 223 223 221 219 218 219 215 211 212 211 208 206 207 208 210 211 216 220 221 224 228 227 224 221 218 217 215 213 210 207 205 205 206 209 212 214 215 217 218 217 216 216 216 215 213 210 210 212 212 212 212 213 214 217 220
212 214 214 214 217 218 219 219 219 218 217 217 218 217 216 217 217 218 219 220 222 224 226 227 229 231 231 230 230 228 226 226 225 225 223 221 221 219 215 213 214 214 213 213 214 214 213 213 217 219 222 226 229 228 224 221 221 220 218 215 213 210 209 209 210 212 212 213 215 217 218 218 217 217 218 217 215 213 213 212 212 213 214 215 216 219
214 216 217 217 217 219 220 220 220 220 219 218 219 219 219 218 219 220 221 222 223 225 228 228 229 231 232 231 231 231 229 228 227 228 227 225 223 222 220 218 217 218 219 220 219 217 214 213 214 217 219 222 227 230 228 224 223 223 222 219 217 215 214 213 213 214 214 213 213 215 217 218 218 218 219 220 219 218 216 214 213 214 215 216 217 219
219 219 220 221 221 221 222 222 222 222 221 220 220 220 220 220 220 220 221 223 224 226 228 229 229 231 232 232 232 232 231 230 229 228 229 229 227 225 224 223 222 221 222 223 223 220 217 215 213 214 218 220 222 228 230 229 227 226 226 225 223 221 219 218 216 216 217 215 214 214 216 217 218 219 220 221 222 222 220 218 217 217 217 218 219 220
226 225 224 225 226 226 226 226 226 226 225 224 223 222 222 221 221 221 222 223 224 226 228 230 230 231 232 233 233 234 233 232 230 228 229 230 230 229 228 228 227 225 223 224 225 223 221 218 216 215 216 219 220 223 228 231 230 228 228 229 229 227 225 224 222 220 219 219 216 215 215 217 218 219 220 221 223 224 224 224 222 221 221 221 221 222
228 229 228 228 229 230 230 230 230 230 230 229 228 227 225 223 223 223 223 223 224 227 229 230 231 232 233 234 235 235 235 234 231 229 228 229 231 231 231 231 231 229 225 224 225 226 224 222 220 217 217 219 221 221 225 229 231 231 230 229 229 229 229 229 228 225 222 221 220 219 218 218 218 219 220 222 223 225 226 227 227 226 225 224 224 224
228 229 229 229 230 232 233 233 234 234 233 233 233 232 230 228 226 225 225 224 224 227 229 230 231 231 233 234 236 236 237 236 234 231 228 227 229 230 231 232 233 232 229 226 226 227 227 226 224 221 220 221 222 221 223 227 230 231 231 230 229 229 230 230 230 229 227 223 222 222 222 221 221 221 221 222 223 225 226 228 229 229 229 228 227 228
233 232 230 229 230 232 233 234 235 236 236 236 236 236 235 234 231 229 227 227 226 227 229 231 231 231 231 234 236 237 238 238 237 234 229 226 227 228 229 230 231 233 231 228 227 228 227 226 226 225 224 224 224 223 223 226 228 230 232 232 230 230 230 230 230 231 230 227 225 225 224 224 224 224 224 223 224 225 227 228 230 231 231 231 231 231
242 240 237 234 232 232 233 234 235 235 236 237 238 238 238 237 237 234 231 229 229 228 229 231 232 232 231 232 234 236 238 239 239 237 232 228 225 225 227 228 228 230 230 228 227 227 227 226 226 226 226 226 226 225 225 226 228 230 231 232 231 231 231 230 229 229 229 229 228 227 226 226 226 226 227 226 226 227 228 229 230 231 232 232 233 233
247 246 244 241 239 237 236 236 236 236 236 236 237 238 239 239 239 238 235 233 232 231 231 232 233 233 233 232 233 235 236 238 239 239 236 231 227 224 224 225 226 227 227 226 224 224 226 226 227 228 228 228 229 228 227 228 229 230 231 231 231 231 232 231 230 228 227 228 228 228 227 226 226 226 227 227 228 229 229 229 230 231 232 233 234 235
246 246 246 245 244 243 242 240 240 239 238 237 237 237 238 239 239 239 238 236 235 234 233 233 234 234 235 234 234 234 235 236 238 239 238 235 230 225 222 222 223 224 225 224 221 221 224 227 229 230 231 231 231 230 229 230 231 231 231 232 231 231 232 233 232 230 229 228 228 229 229 228 226 224 224 225 226 227 229 229 229 230 231 232 234 235
241 241 242 244 244 244 244 244 243 243 242 241 240 238 238 238 239 240 239 238 237 236 236 235 235 235 236 236 236 236 236 236 236 237 238 236 233 228 223 220 221 222 223 222 220 219 222 227 229 231 232 233 234 233 232 231 232 232 232 232 232 232 233 233 232 232 230 228 228 229 231 231 230 228 227 226 226 226 227 228 229 230 231 231 233 234
237 238 240 242 244 245 245 246 246 246 246 245 243 242 240 238 238 239 240 239 239 238 238 237 236 235 235 236 237 237 237 237 236 236 236 236 235 231 225 221 219 220 221 221 221 220 221 225 229 230 232 233 235 235 235 234 233 232 232 232 233 234 235 235 234 234 233 232 231 230 231 233 234 233 234 233 232 231 229 227 228 229 231 232 233 234
242 244 245 246 246 246 247 247 248 248 248 247 246 245 243 241 239 238 239 239 239 239 239 239 238 236 235 235 236 237 237 237 236 236 235 235 235 233 229 223 219 219 220 220 222 222 222 224 228 230 231 232 234 235 236 236 235 234 234 233 233 234 235 235 236 237 237 237 237 236 235 235 235 234 235 235 236 236 234 231 228 228 230 232 233 234
251 252 252 251 250 250 250 250 251 251 250 249 248 246 244 243 241 239 238 238 238 239 240 240 240 238 237 236 235 235 236 236 236 235 235 235 235 234 232 227 221 219 220 220 221 223 224 224 226 229 230 231 232 234 236 237 236 235 235 235 234 234 235 234 236 237 237 237 238 237 236 236 236 236 235 233 235 237 237 236 234 229 228 231 233 234
255 257 258 259 259 259 259 258 256 255 253 251 249 248 246 245 243 241 239 238 237 238 239 239 240 240 239 238 236 235 235 235 235 235 235 235 235 234 233 231 226 222 221 220 221 222 224 225 225 227 229 231 232 233 234 236 237 236 236 236 236 236 236 235 235 236 237 237 238 238 237 235 235 238 238 236 235 236 237 239 239 234 231 231 232 234
263 266 269 269 269 269 267 265 261 258 255 252 250 250 249 248 247 245 243 241 238 237 237 238 238 239 239 239 238 237 235 234 234 235 235 235 235 235 234 233 230 226 223 223 222 222 223 224 225 226 228 230 232 234 234 235 237 238 237 237 237 238 238 237 235 235 237 238 238 238 238 236 235 237 239 238 237 237 237 239 241 240 237 235 233 233
272 274 274 273 272 272 273 271 266 260 256 253 252 251 251 251 251 249 247 245 241 239 237 237 237 237 238 239 239 239 238 236 235 234 234 234 235 235 235 234 232 230 227 225 225 224 224 224 225 227 229 229 231 233 235 235 237 238 239 239 239 238 238 238 237 237 238 238 239 240 240 240 239 239 239 239 238 238 238 238 240 242 243 242 241 240
275 274 272 271 271 272 275 274 269 262 256 254 253 251 250 250 250 249 248 248 246 245 242 240 238 237 237 237 238 238 239 238 237 235 234 234 234 234 235 235 234 232 230 228 227 226 226 226 226 227 229 230 230 231 233 235 236 238 239 240 241 240 239 239 239 240 240 239 240 241 242 242 242 241 240 239 238 239 239 239 240 241 241 242 245 246
273 273 272 272 273 274 275 275 272 266 259 255 254 253 251 250 248 248 248 248 250 251 251 248 245 241 238 236 236 237 237 238 238 237 235 234 234 234 234 234 234 233 232 230 228 227 227 228 228 228 228 229 231 231 232 233 235 238 239 240 242 243 242 241 241 242 242 241 241 243 244 244 244 243 242 241 239 238 239 240 240 240 238 238 240 243
273 273 275 275 276 275 274 274 275 271 265 259 257 257 255 252 249 247 247 248 251 254 257 256 252 247 242 238 236 236 236 236 238 238 237 235 234 234 233 233 233 233 233 232 230 229 227 228 230 230 228 228 230 232 233 233 234 236 239 240 241 243 244 243 243 244 244 243 242 243 244 245 246 245 245 244 242 240 240 240 240 238 238 238 238 239
270 272 274 276 277 276 275 274 275 273 269 264 260 258 257 255 252 250 249 251 253 256 259 260 257 253 247 242 238 236 235 235 235 237 237 237 235 234 234 233 232 232 232 233 232 230 228 227 229 231 231 230 229 231 234 235 235 236 237 239 240 242 243 244 244 244 244 244 243 242 242 243 245 246 246 246 245 244 241 239 239 238 238 238 238 238
268 268 270 273 275 275 275 276 276 274 271 268 264 260 256 254 253 252 253 253 255 256 259 261 261 258 253 248 243 238 236 236 235 235 236 237 236 235 234 234 233 232 231 231 232 232 230 228 228 230 232 232 231 231 233 236 237 237 237 238 240 241 242 243 243 243 243 243 242 241 240 240 242 243 245 246 246 246 243 240 239 238 237 236 237 237
270 268 265 267 271 273 274 276 277 274 273 270 266 263 259 255 254 254 255 256 257 258 259 260 261 261 259 256 250 244 240 238 237 235 235 235 236 236 235 235 234 233 231 231 231 231 230 229 228 229 230 232 233 232 232 235 237 238 238 238 239 241 242 243 243 243 243 243 243 243 241 239 239 241 244 244 242 243 243 241 239 238 235 233 234 235
268 266 263 263 265 268 272 274 274 274 273 271 266 264 262 259 259 260 261 262 263 262 261 261 260 260 260 259 257 253 248 244 241 239 237 236 236 236 236 235 235 234 233 232 231 231 230 229 229 229 230 231 232 233 233 234 236 238 239 239 239 240 242 243 243 243 242 242 243 244 243 241 240 240 243 243 240 240 243 244 242 240 236 233 234 236
262 261 261 259 257 260 266 270 270 271 272 270 265 262 262 261 262 263 264 266 268 268 268 266 264 263 261 259 258 257 254 251 248 245 241 239 238 237 236 236 235 235 235 233 232 231 231 229 228 228 229 231 232 232 233 233 235 237 239 240 241 241 242 244 244 244 243 243 243 244 243 242 240 240 241 243 242 242 245 246 246 245 243 238 236 238
259 261 261 259 255 254 259 263 265 266 270 270 265 261 262 263 264 265 265 266 267 269 271 271 270 269 267 265 263 261 258 255 253 251 247 244 242 240 239 237 236 235 235 235 233 232 231 231 229 227 227 230 232 232 232 232 234 236 237 238 240 242 243 245 246 246 245 245 245 245 245 242 240 239 240 241 243 244 244 245 244 245 245 242 240 240
Height
5841 5843 5847 5851 5854 5856 5859 5861 5862 5862 5865 5868 5870 5872 5874 5877 5879 5881 5883 5885 5888 5890 5891 5892 5894 5896 5898 5899 5900 5901 5902 5902 5903 5903 5904 5905 5906 5908 5909 5911 5912 5913 5914 5915 5916 5917 5917 5918 5919 5920 5921 5922 5923 5925 5926 5927 5928 5929 5931 5932 5934 5935 5937 5938 5938 5939 5940 5941 5942 5943 5944 5945 5946 5947 5948 5948 5949 5950 5951 5952 5953 5953 5954 5954 5955 5955
5837 5841 5845 5848 5850 5852 5854 5856 5858 5860 5863 5866 5868 5871 5873 5875 5876 5878 5880 5883 5886 5888 5889 5891 5894 5896 5897 5899 5901 5902 5902 5902 5902 5903 5903 5904 5905 5906 5908 5910 5911 5913 5914 5915 5915 5916 5917 5918 5919 5920 5920 5921 5922 5924 5925 5926 5928 5929 5930 5932 5933 5935 5936 5937 5938 5939 5940 5941 5942 5943 5944 5945 5946 5947 5948 5949 5950 5951 5952 5953 5953 5954 5954 5955 5955 5955
5835 5838 5842 5844 5845 5847 5850 5852 5854 5857 5860 5863 5866 5869 5871 5873 5874 5875 5878 5881 5883 5886 5888 5890 5893 5895 5897 5899 5901 5901 5901 5902 5903 5904 5905 5905 5906 5906 5907 5908 5910 5912 5913 5914 5915 5916 5917 5918 5919 5919 5920 5920 5922 5923 5925 5926 5927 5928 5930 5931 5933 5934 5935 5937 5938 5939 5940 5942 5943 5944 5945 5946 5947 5948 5949 5949 5950 5951 5952 5953 5954 5954 5955 5955 5955 5956
5833 5836 5838 5840 5842 5844 5847 5849 5851 5854 5857 5860 5864 5867 5870 5871 5872 5873 5876 5878 5881 5884 5886 5889 5891 5893 5895 5898 5899 5899 5900 5902 5903 5905 5906 5907 5907 5907 5907 5908 5909 5911 5912 5913 5914 5915 5916 5917 5918 5919 5919 5920 5921 5922 5924 5926 5927 5928 5929 5930 5932 5933 5935 5936 5938 5939 5941 5942 5943 5944 5946 5947 5947 5948 5949 5949 5950 5951 5952 5953 5954 5955 5955 5955 5956 5957
5829 5832 5834 5836 5839 5841 5844 5847 5849 5851 5854 5857 5861 5864 5867 5869 5869 5871 5873 5875 5878 5881 5884 5886 5889 5891 5893 5895 5897 5897 5899 5901 5903 5905 5906 5907 5907 5907 5908 5908 5909 5910 5911 5912 5913 5914 5915 5916 5917 5918 5918 5919 5920 5921 5923 5924 5926 5927 5928 5929 5931 5933 5934 5936 5938 5939 5941 5942 5943 5944 5945 5946 5946 5947 5948 5949 5950 5951 5951 5953 5954 5955 5955 5956 5956 5957
5825 5827 5830 5832 5835 5838 5841 5844 5846 5848 5851 5854 5858 5861 5864 5866 5867 5868 5870 5873 5876 5878 5880 5884 5887 5889 5891 5893 5894 5896 5898 5901 5903 5904 5905 5906 5907 5908 5908 5908 5908 5909 5911 5912 5913 5913 5914 5915 5916 5917 5918 5918 5919 5920 5921 5923 5925 5926 5927 5928 5930 5932 5934 5936 5938 5939 5941 5942 5943 5943 5943 5944 5945 5945 5947 5949 5950 5951 5951 5952 5954 5955 5956 5956 5957 5957
5821 5824 5826 5829 5831 5835 5838 5841 5843 5846 5849 5852 5856 5859 5861 5863 5864 5866 5868 5870 5873 5875 5877 5881 5884 5886 5889 5891 5893 5895 5898 5900 5902 5903 5904 5905 5906 5907 5907 5906 5907 5908 5909 5911 5912 5913 5914 5915 5915 5916 5917 5917 5918 5919 5920 5922 5924 5925 5926 5928 5929 5931 5933 5936 5938 5939 5940 5941 5942 5942 5943 5944 5945 5946 5948 5949 5950 5951 5951 5952 5954 5955 5956 5956 5957 5958
5818 5821 5823 5826 5828 5831 5835 5838 5841 5844 5847 5851 5855 5857 5858 5860 5862 5864 5865 5867 5870 5871 5875 5879 5882 5885 5888 5890 5892 5894 5897 5899 5901 5902 5903 5904 5905 5905 5905 5906 5906 5906 5908 5909 5911 5913 5914 5915 5915 5916 5916 5916 5917 5918 5920 5921 5923 5924 5925 5926 5928 5931 5933 5935 5937 5939 5939 5940 5941 5942 5943 5944 5946 5947 5948 5949 5950 5951 5951 5952 5953 5955 5956 5957 5957 5958
5815 5817 5820 5823 5826 5829 5833 5836 5839 5842 5846 5849 5852 5853 5855 5857 5859 5860 5862 5864 5867 5869 5873 5877 5880 5883 5886 5888 5890 5893 5896 5897 5898 5898 5900 5901 5902 5903 5904 5904 5905 5905 5906 5908 5910 5911 5913 5914 5915 5915 5915 5916 5917 5918 5919 5920 5921 5922 5923 5925 5927 5930 5933 5935 5936 5938 5939 5939 5941 5942 5943 5944 5946 5947 5948 5949 5950 5951 5952 5952 5953 5955 5956 5957 5957 5958
5811 5814 5817 5819 5822 5826 5830 5833 5836 5839 5843 5846 5848 5849 5852 5854 5855 5857 5860 5862 5864 5866 5871 5875 5878 5882 5885 5886 5888 5890 5891 5892 5892 5894 5895 5896 5897 5899 5900 5902 5903 5904 5905 5906 5908 5910 5911 5912 5913 5914 5914 5916 5917 5918 5919 5920 5921 5922 5923 5924 5926 5929 5932 5934 5935 5937 5939 5939 5940 5942 5943 5944 5946 5947 5947 5948 5949 5950 5951 5952 5953 5954 5955 5956 5957 5958
5808 5810 5813 5815 5819 5823 5827 5830 5833 5836 5839 5842 5844 5846 5848 5850 5852 5854 5857 5860 5861 5864 5869 5872 5875 5880 5882 5883 5885 5886 5887 5888 5890 5892 5893 5894 5895 5895 5896 5898 5900 5902 5904 5905 5906 5907 5909 5911 5912 5913 5914 5916 5917 5918 5919 5920 5921 5922 5922 5923 5925 5927 5930 5933 5935 5936 5938 5939 5940 5941 5943 5944 5945 5946 5947 5948 5949 5950 5951 5952 5953 5954 5955 5956 5957 5958
5804 5806 5809 5812 5817 5821 5824 5826 5829 5833 5836 5838 5840 5842 5845 5847 5850 5852 5854 5856 5858 5862 5867 5870 5873 5878 5880 5881 5882 5883 5885 5888 5890 5892 5894 5895 5896 5896 5896 5896 5897 5898 5900 5903 5904 5905 5907 5909 5912 5913 5915 5916 5917 5918 5919 5919 5920 5921 5922 5922 5924 5926 5929 5932 5934 5935 5937 5938 5940 5941 5943 5944 5945 5946 5947 5948 5949 5950 5951 5952 5952 5953 5955 5956 5957 5958
5801 5803 5807 5810 5814 5818 5820 5823 5826 5829 5832 5835 5837 5839 5842 5845 5847 5849 5851 5853 5856 5861 5865 5867 5871 5875 5876 5878 5879 5880 5883 5886 5889 5891 5893 5894 5896 5897 5898 5898 5897 5897 5897 5899 5901 5903 5905 5908 5910 5912 5914 5916 5917 5918 5918 5919 5919 5920 5921 5922 5923 5925 5928 5930 5932 5934 5936 5937 5939 5941 5942 5944 5944 5945 5946 5947 5948 5950 5951 5952 5952 5953 5954 5956 5957 5958
5798 5801 5804 5808 5811 5815 5817 5820 5823 5826 5829 5832 5834 5837 5840 5842 5844 5846 5848 5851 5855 5860 5863 5865 5869 5872 5873 5875 5877 5878 5881 5884 5887 5889 5891 5893 5894 5895 5896 5898 5899 5899 5899 5899 5900 5901 5903 5906 5908 5910 5912 5914 5916 5917 5917 5918 5918 5919 5920 5921 5922 5924 5926 5929 5931 5933 5934 5936 5938 5940 5941 5943 5944 5944 5945 5946 5948 5949 5950 5951 5952 5953 5954 5955 5957 5958
5795 5798 5801 5805 5809 5812 5815 5817 5821 5824 5827 5830 5832 5835 5838 5841 5843 5845 5848 5851 5855 5859 5861 5862 5865 5868 5870 5873 5876 5877 5879 5882 5885 5887 5889 5891 5893 5894 5895 5897 5898 5900 5901 5901 5902 5902 5902 5903 5905 5908 5910 5913 5914 5915 5916 5917 5918 5919 5920 5921 5921 5923 5924 5927 5929 5932 5933 5934 5936 5938 5940 5941 5942 5943 5944 5945 5947 5948 5950 5950 5951 5952 5953 5955 5956 5958
5793 5796 5799 5803 5806 5810 5812 5815 5818 5821 5824 5827 5829 5832 5834 5837 5840 5843 5845 5849 5854 5858 5859 5860 5862 5865 5867 5871 5873 5874 5876 5880 5882 5885 5887 5889 5890 5892 5894 5895 5896 5898 5899 5900 5902 5903 5902 5902 5903 5906 5908 5910 5912 5914 5915 5916 5917 5917 5918 5920 5921 5922 5923 5925 5927 5929 5931 5933 5935 5937 5938 5940 5941 5942 5943 5944 5946 5947 5949 5950 5951 5951 5952 5954 5955 5956
5789 5793 5796 5800 5804 5807 5809 5811 5815 5818 5821 5824 5826 5829 5832 5835 5837 5839 5842 5846 5851 5854 5855 5857 5859 5862 5865 5868 5869 5870 5873 5877 5879 5882 5884 5887 5888 5890 5892 5893 5895 5897 5898 5899 5900 5901 5902 5902 5903 5904 5906 5908 5910 5912 5913 5915 5915 5916 5917 5918 5920 5921 5922 5924 5925 5927 5929 5931 5933 5935 5937 5938 5939 5941 5942 5943 5944 5946 5947 5949 5950 5951 5952 5953 5954 5955
5787 5790 5793 5797 5800 5803 5806 5809 5812 5815 5818 5821 5823 5826 5830 5832 5834 5836 5839 5842 5846 5849 5851 5854 5856 5858 5861 5863 5865 5867 5870 5874 5877 5879 5882 5884 5886 5888 5890 5891 5893 5895 5897 5898 5899 5900 5901 5902 5903 5904 5905 5906 5908 5909 5911 5912 5913 5914 5915 5917 5919 5920 5921 5922 5924 5926 5928 5930 5932 5934 5936 5937 5938 5939 5941 5942 5943 5944 5946 5948 5949 5950 5951 5951 5952 5954
5784 5787 5790 5794 5797 5800 5803 5806 5808 5811 5815 5817 5820 5824 5826 5828 5830 5833 5835 5838 5841 5845 5847 5851 5853 5855 5857 5860 5862 5865 5868 5871 5874 5876 5879 5882 5884 5886 5888 5889 5891 5893 5895 5897 5898 5899 5901 5901 5902 5903 5903 5904 5905 5906 5908 5909 5911 5912 5914 5915 5917 5919 5920 5921 5922 5924 5926 5928 5930 5932 5934 5935 5937 5938 5939 5941 5942 5943 5945 5946 5948 5949 5950 5951 5952 5952
5782 5784 5787 5790 5794 5797 5800 5802 5805 5808 5811 5814 5817 5820 5822 5824 5827 5830 5832 5835 5838 5841 5843 5847 5850 5852 5853 5856 5860 5862 5865 5868 5871 5874 5876 5879 5881 5884 5885 5887 5889 5891 5893 5895 5896 5897 5898 5899 5899 5900 5901 5902 5902 5904 5905 5906 5908 5910 5912 5913 5915 5917 5918 5920 5921 5923 5925 5927 5928 5930 5932 5934 5935 5937 5938 5940 5941 5942 5943 5944 5946 5948 5949 5950 5951 5952
5779 5782 5785 5788 5791 5794 5796 5798 5801 5805 5808 5810 5813 5816 5818 5821 5824 5827 5829 5832 5835 5837 5840 5843 5846 5848 5850 5854 5857 5860 5862 5865 5868 5871 5874 5876 5879 5881 5883 5885 5887 5889 5891 5893 5894 5895 5896 5897 5897 5897 5898 5899 5900 5901 5902 5904 5905 5907 5909 5911 5913 5914 5916 5918 5920 5922 5923 5925 5927 5929 5931 5932 5933 5935 5937 5938 5940 5941 5942 5943 5945 5946 5947 5949 5950 5951
5777 5780 5782 5785 5788 5790 5793 5796 5799 5802 5804 5807 5810 5812 5815 5818 5821 5823 5826 5828 5831 5834 5836 5839 5842 5845 5847 5851 5854 5857 5860 5863 5866 5868 5871 5874 5876 5879 5881 5883 5884 5886 5888 5890 5891 5893 5894 5895 5896 5897 5897 5898 5898 5899 5901 5902 5903 5904 5906 5908 5910 5912 5914 5916 5918 5920 5921 5923 5925 5927 5929 5930 5932 5933 5935 5937 5938 5940 5941 5942 5943 5944 5946 5947 5948 5949
5775 5778 5780 5782 5784 5787 5790 5793 5796 5798 5801 5804 5807 5809 5812 5815 5817 5820 5822 5825 5828 5830 5832 5835 5838 5841 5844 5847 5850 5854 5857 5860 5863 5866 5868 5871 5873 5876 5878 5880 5882 5883 5885 5887 5889 5890 5892 5893 5894 5895 5896 5897 5899 5900 5900 5901 5901 5902 5904 5905 5907 5909 5911 5913 5915 5917 5918 5920 5923 5925 5926 5928 5930 5932 5934 5935 5937 5938 5939 5940 5941 5943 5944 5945 5946 5948
5774 5776 5778 5780 5782 5785 5788 5791 5793 5796 5799 5801 5804 5807 5809 5812 5814 5817 5819 5822 5824 5826 5829 5832 5834 5836 5840 5843 5846 5849 5853 5856 5859 5863 5865 5868 5870 5873 5875 5877 5880 5881 5882 5884 5886 5888 5889 5891 5892 5893 5894 5896 5898 5899 5899 5900 5901 5901 5901 5903 5904 5906 5907 5909 5911 5913 5915 5918 5920 5922 5924 5926 5928 5930 5932 5934 5935 5936 5937 5938 5939 5941 5942 5943 5945 5946
5771 5773 5775 5777 5780 5782 5785 5787 5790 5793 5796 5798 5801 5804 5806 5809 5812 5814 5816 5819 5821 5822 5825 5827 5829 5832 5836 5839 5842 5845 5849 5852 5855 5859 5862 5865 5867 5870 5872 5874 5876 5878 5879 5881 5883 5885 5887 5888 5890 5892 5893 5894 5895 5897 5898 5899 5900 5900 5900 5902 5903 5903 5904 5905 5907 5909 5912 5914 5917 5919 5922 5924 5926 5929 5930 5931 5932 5933 5934 5935 5937 5938 5940 5941 5942 5944
5769 5770 5773 5775 5777 5779 5781 5784 5786 5790 5793 5795 5798 5801 5804 5806 5809 5811 5814 5816 5818 5819 5820 5823 5826 5828 5832 5835 5838 5841 5844 5848 5851 5855 5858 5861 5864 5866 5868 5870 5872 5874 5876 5878 5879 5881 5883 5885 5887 5889 5891 5892 5893 5894 5896 5897 5898 5899 5900 5901 5901 5902 5903 5904 5905 5906 5908 5911 5913 5916 5919 5922 5924 5926 5928 5929 5930 5930 5931 5933 5934 5936 5937 5938 5940 5941
5766 5768 5770 5772 5774 5776 5778 5780 5783 5786 5789 5792 5795 5797 5800 5803 5806 5808 5811 5813 5814 5815 5816 5819 5822 5825 5827 5831 5834 5837 5840 5843 5847 5850 5854 5857 5859 5862 5864 5866 5868 5870 5872 5874 5876 5878 5880 5882 5883 5885 5887 5889 5890 5891 5893 5895 5896 5897 5898 5899 5899 5900 5901 5902 5904 5905 5906 5908 5910 5913 5916 5919 5922 5924 5925 5926 5927 5928 5929 5930 5932 5933 5934 5936 5937 5938
5765 5767 5768 5770 5772 5774 5775 5777 5780 5782 5785 5788 5791 5793 5796 5799 5802 5805 5807 5809 5811 5812 5812 5815 5819 5821 5823 5826 5829 5832 5835 5839 5842 5845 5848 5851 5854 5857 5859 5862 5864 5867 5868 5870 5872 5874 5876 5878 5880 5881 5883 5885 5887 5888 5890 5891 5893 5895 5896 5897 5898 5899 5900 5900 5902 5903 5904 5906 5908 5910 5913 5915 5918 5920 5921 5923 5924 5926 5927 5929 5930 5931 5932 5933 5935 5936
5763 5765 5766 5768 5770 5771 5773 5775 5777 5779 5782 5784 5787 5789 5792 5795 5798 5800 5803 5805 5807 5808 5809 5812 5815 5817 5819 5822 5825 5828 5831 5834 5838 5841 5844 5846 5849 5852 5854 5857 5859 5862 5864 5866 5868 5870 5872 5874 5876 5877 5879 5881 5883 5885 5886 5888 5890 5891 5893 5895 5897 5898 5899 5899 5900 5901 5902 5903 5905 5908 5909 5911 5913 5915 5917 5919 5922 5924 5926 5927 5928 5929 5930 5932 5933 5934
5761 5762 5764 5766 5767 5769 5771 5772 5774 5776 5779 5781 5783 5785 5788 5791 5794 5796 5798 5801 5804 5805 5806 5809 5811 5813 5816 5818 5820 5823 5826 5829 5833 5836 5839 5842 5844 5847 5850 5852 5854 5857 5860 5862 5864 5866 5868 5870 5872 5874 5876 5878 5880 5881 5883 5885 5886 5888 5889 5891 5894 5896 5897 5898 5898 5899 5900 5902 5904 5905 5906 5907 5909 5911 5913 5916 5919 5921 5923 5925 5926 5927 5929 5930 5931 5932
5758 5760 5762 5764 5765 5766 5768 5769 5771 5773 5775 5777 5779 5782 5784 5787 5789 5792 5794 5797 5800 5801 5802 5805 5807 5810 5812 5814 5816 5818 5821 5823 5827 5831 5835 5837 5840 5842 5845 5847 5849 5852 5855 5857 5859 5862 5864 5866 5868 5870 5872 5874 5876 5878 5880 5881 5883 5884 5886 5887 5889 5892 5893 5895 5896 5897 5899 5900 5901 5902 5903 5905 5906 5908 5910 5913 5916 5918 5920 5922 5924 5926 5927 5928 5929 5930
5756 5757 5759 5761 5762 5763 5765 5766 5768 5770 5772 5774 5776 5778 5780 5782 5784 5787 5790 5793 5795 5797 5798 5800 5802 5805 5809 5811 5812 5814 5816 5818 5821 5825 5830 5833 5835 5837 5839 5842 5845 5847 5850 5853 5855 5858 5860 5862 5864 5866 5868 5870 5872 5874 5876 5878 5879 5881 5882 5884 5886 5888 5889 5891 5894 5895 5897 5898 5898 5898 5900 5902 5904 5906 5908 5910 5912 5915 5917 5919 5921 5923 5925 5927 5928 5929
5753 5754 5756 5758 5759 5760 5762 5763 5764 5766 5768 5770 5771 5773 5775 5777 5779 5782 5786 5788 5790 5792 5794 5795 5797 5801 5804 5806 5808 5810 5811 5813 5816 5820 5824 5828 5831 5833 5834 5837 5840 5842 5845 5848 5851 5853 5855 5857 5859 5861 5864 5866 5868 5870 5872 5874 5875 5877 5879 5880 5882 5884 5885 5887 5890 5892 5893 5894 5894 5895 5897 5898 5900 5903 5905 5907 5909 5911 5913 5915 5918 5921 5923 5925 5926 5926
5749 5750 5752 5754 5755 5757 5758 5759 5760 5762 5763 5765 5767 5769 5770 5772 5775 5777 5780 5783 5785 5787 5789 5791 5793 5796 5799 5802 5804 5805 5807 5809 5811 5814 5818 5822 5825 5828 5830 5831 5834 5837 5840 5843 5846 5848 5850 5853 5855 5857 5859 5861 5864 5866 5869 5870 5871 5873 5874 5876 5877 5879 5881 5883 5885 5887 5888 5889 5890 5891 5893 5894 5896 5898 5901 5903 5905 5907 5909 5911 5914 5916 5919 5921 5922 5924
5745 5746 5747 5749 5751 5752 5753 5755 5756 5757 5759 5761 5763 5765 5766 5768 5770 5772 5774 5777 5780 5782 5784 5787 5789 5791 5793 5796 5799 5800 5802 5805 5806 5809 5812 5816 5819 5822 5824 5826 5829 5832 5835 5837 5840 5843 5846 5848 5850 5852 5854 5857 5859 5862 5864 5866 5867 5868 5870 5871 5873 5874 5876 5878 5880 5882 5884 5885 5886 5888 5889 5891 5893 5894 5896 5897 5899 5901 5903 5906 5908 5911 5913 5916 5918 5920
5741 5742 5743 5745 5746 5747 5748 5750 5750 5752 5754 5756 5758 5760 5761 5763 5765 5767 5769 5772 5774 5777 5779 5781 5784 5786 5788 5791 5793 5795 5797 5800 5802 5804 5806 5809 5813 5816 5819 5822 5824 5827 5830 5832 5835 5838 5841 5843 5846 5848 5850 5852 5855 5857 5859 5861 5862 5864 5865 5867 5869 5870 5872 5873 5875 5877 5879 5881 5882 5884 5887 5889 5891 5893 5894 5894 5895 5896 5898 5900 5903 5906 5908 5910 5912 5915
5737 5738 5740 5741 5742 5743 5744 5744 5745 5747 5749 5750 5751 5753 5756 5758 5760 5762 5764 5766 5769 5771 5773 5775 5778 5781 5783 5785 5787 5789 5791 5794 5796 5798 5801 5803 5806 5810 5813 5816 5819 5822 5825 5828 5830 5833 5836 5838 5841 5843 5846 5848 5850 5852 5854 5856 5858 5859 5861 5863 5864 5866 5867 5870 5872 5873 5876 5878 5880 5883 5885 5887 5889 5891 5892 5893 5894 5894 5895 5896 5898 5901 5903 5905 5908 5910
5734 5735 5736 5737 5738 5739 5739 5740 5741 5742 5743 5744 5745 5747 5749 5751 5754 5756 5758 5760 5763 5766 5767 5769 5771 5774 5776 5778 5781 5783 5785 5788 5789 5792 5795 5798 5800 5803 5807 5810 5813 5816 5819 5822 5825 5828 5831 5833 5836 5838 5840 5843 5845 5847 5849 5851 5853 5855 5856 5858 5860 5861 5863 5867 5870 5871 5873 5876 5879 5881 5883 5885 5886 5887 5888 5890 5892 5893 5894 5894 5894 5896 5899 5901 5903 5905
5731 5732 5733 5733 5734 5735 5735 5736 5737 5737 5738 5739 5740 5741 5742 5744 5747 5749 5751 5754 5758 5760 5761 5763 5765 5767 5769 5771 5774 5776 5779 5781 5783 5786 5789 5791 5794 5797 5801 5804 5807 5810 5813 5817 5820 5822 5825 5827 5830 5833 5835 5838 5840 5842 5844 5846 5848 5850 5852 5853 5854 5856 5859 5863 5866 5867 5868 5871 5874 5876 5879 5881 5883 5884 5884 5885 5887 5890 5892 5894 5893 5893 5893 5895 5897 5900
5728 5729 5730 5730 5731 5731 5732 5732 5733 5733 5733 5734 5734 5734 5736 5737 5739 5741 5744 5749 5753 5754 5754 5756 5757 5759 5762 5764 5767 5770 5772 5774 5777 5780 5783 5785 5788 5791 5795 5798 5801 5804 5807 5810 5814 5816 5819 5821 5824 5827 5830 5832 5834 5836 5838 5840 5842 5845 5847 5847 5848 5851 5855 5859 5862 5863 5864 5866 5868 5871 5873 5876 5878 5880 5881 5882 5883 5886 5889 5892 5893 5892 5890 5889 5892 5894
5726 5726 5727 5727 5727 5727 5728 5727 5728 5727 5728 5728 5728 5729 5731 5732 5733 5736 5739 5743 5745 5745 5746 5748 5750 5752 5755 5757 5760 5763 5765 5768 5771 5774 5776 5779 5781 5784 5788 5791 5795 5798 5801 5804 5807 5810 5813 5815 5818 5821 5823 5826 5829 5831 5833 5835 5837 5839 5841 5843 5844 5847 5851 5854 5857 5858 5859 5861 5863 5865 5868 5870 5872 5875 5877 5878 5880 5882 5885 5887 5890 5891 5890 5888 5889 5890
5723 5723 5723 5723 5723 5723 5723 5722 5722 5722 5722 5722 5723 5725 5726 5727 5729 5731 5733 5734 5735 5736 5738 5740 5742 5744 5747 5750 5752 5755 5758 5761 5764 5767 5769 5772 5775 5777 5780 5784 5788 5791 5794 5797 5800 5803 5806 5809 5812 5815 5817 5819 5823 5825 5827 5829 5831 5833 5836 5838 5840 5842 5846 5849 5851 5853 5855 5857 5859 5861 5863 5865 5866 5869 5871 5874 5876 5878 5880 5882 5885 5888 5889 5889 5889 5889
5719 5719 5719 5719 5719 5719 5718 5718 5717 5717 5717 5718 5719 5720 5721 5722 5723 5725 5726 5727 5728 5729 5731 5732 5734 5736 5739 5742 5744 5747 5750 5753 5756 5759 5762 5765 5767 5770 5773 5776 5780 5783 5786 5790 5793 5796 5799 5803 5805 5808 5811 5813 5816 5819 5821 5824 5826 5828 5830 5833 5835 5838 5841 5843 5845 5848 5851 5853 5855 5857 5858 5860 5861 5864 5866 5868 5871 5873 5874 5876 5879 5882 5884 5886 5888 5889
5715 5715 5715 5715 5715 5715 5714 5714 5713 5713 5713 5714 5714 5715 5715 5717 5718 5719 5720 5721 5722 5723 5724 5725 5726 5728 5730 5733 5736 5739 5742 5745 5747 5750 5754 5757 5759 5762 5765 5768 5771 5775 5778 5782 5785 5788 5792 5795 5798 5801 5804 5807 5809 5812 5814 5817 5820 5822 5824 5827 5830 5832 5835 5838 5840 5842 5845 5848 5850 5852 5854 5855 5857 5859 5861 5863 5865 5868 5869 5871 5873 5876 5878 5881 5883 5885
5711 5712 5712 5711 5711 5711 5710 5710 5710 5709 5709 5710 5710 5710 5711 5712 5713 5714 5715 5716 5717 5717 5718 5718 5718 5719 5722 5724 5727 5730 5733 5736 5739 5742 5745 5748 5751 5754 5756 5759 5763 5766 5770 5773 5777 5780 5784 5788 5791 5794 5797 5800 5802 5805 5807 5810 5813 5816 5819 5821 5824 5826 5829 5832 5835 5836 5839 5842 5844 5847 5849 5851 5852 5854 5856 5858 5860 5862 5864 5867 5869 5871 5874 5876 5878 5881
5708 5708 5708 5708 5708 5708 5707 5707 5707 5706 5706 5706 5706 5706 5707 5707 5708 5709 5710 5711 5711 5712 5712 5712 5711 5712 5713 5715 5718 5721 5723 5726 5730 5733 5736 5739 5743 5746 5748 5751 5754 5757 5761 5764 5768 5771 5775 5780 5784 5787 5790 5793 5795 5797 5800 5803 5806 5809 5813 5815 5817 5820 5822 5826 5829 5831 5833 5836 5838 5841 5844 5845 5847 5849 5851 5853 5855 5857 5859 5861 5864 5867 5869 5871 5874 5877
5705 5705 5705 5705 5705 5704 5704 5704 5704 5703 5703 5703 5703 5703 5702 5703 5703 5704 5705 5705 5706 5706 5707 5706 5706 5706 5706 5707 5709 5711 5714 5717 5720 5723 5726 5729 5733 5737 5739 5742 5745 5748 5751 5755 5758 5762 5766 5771 5775 5779 5782 5785 5788 5790 5793 5795 5798 5802 5806 5808 5811 5813 5815 5819 5822 5825 5828 5830 5832 5835 5838 5839 5841 5844 5847 5848 5851 5852 5854 5856 5859 5862 5864 5867 5869 5872
5701 5701 5701 5701 5701 5701 5700 5701 5701 5700 5700 5700 5700 5699 5699 5699 5699 5699 5700 5700 5701 5701 5701 5701 5701 5700 5700 5700 5701 5703 5706 5708 5710 5713 5716 5720 5723 5727 5730 5733 5735 5739 5742 5745 5748 5752 5757 5762 5766 5770 5774 5778 5780 5783 5786 5788 5790 5794 5797 5801 5804 5806 5809 5812 5816 5818 5821 5824 5826 5829 5831 5834 5836 5839 5841 5844 5846 5848 5849 5851 5853 5856 5859 5861 5864 5866
5697 5697 5697 5698 5698 5698 5697 5697 5698 5697 5696 5697 5697 5697 5696 5695 5695 5695 5696 5696 5696 5696 5697 5697 5696 5696 5696 5696 5696 5697 5699 5700 5702 5704 5707 5710 5713 5716 5719 5722 5725 5729 5732 5736 5739 5742 5746 5752 5757 5761 5765 5769 5772 5775 5778 5782 5784 5786 5789 5793 5796 5799 5802 5805 5809 5812 5814 5818 5821 5823 5826 5829 5831 5833 5835 5838 5841 5843 5844 5846 5848 5851 5853 5856 5858 5861
5691 5691 5692 5694 5695 5695 5693 5693 5694 5694 5693 5693 5694 5693 5693 5692 5692 5692 5692 5692 5692 5692 5692 5692 5692 5692 5691 5692 5692 5692 5693 5694 5695 5696 5699 5702 5704 5705 5708 5711 5715 5719 5723 5726 5730 5733 5736 5741 5747 5752 5756 5760 5763 5766 5770 5774 5777 5779 5782 5785 5789 5792 5795 5798 5801 5805 5808 5811 5814 5817 5819 5822 5825 5827 5829 5831 5834 5837 5839 5841 5843 5845 5848 5850 5852 5855
5686 5686 5687 5689 5690 5691 5690 5689 5690 5690 5689 5689 5690 5690 5689 5689 5689 5689 5689 5689 5688 5688 5688 5688 5688 5687 5687 5687 5687 5688 5688 5689 5689 5690 5692 5694 5695 5696 5698 5701 5705 5709 5713 5716 5720 5724 5727 5731 5735 5741 5747 5751 5754 5756 5761 5766 5769 5772 5775 5778 5781 5785 5789 5791 5794 5797 5801 5805 5807 5809 5811 5814 5818 5821 5823 5825 5828 5830 5833 5836 5838 5841 5843 5845 5847 5849